Date String (YYYY-MM-DD hh:mm:ss) UTC,Instrument flags,absolute air pressure of the measurement (hPa),sample flow rate (lpm),inlet stack bypass flow (lpm),air temperature of the measurement (°C),ambient temperature measured by the external sensor (°C),aerosol sample conditioner tube jacket temperature (°C),OPC LED temperature (°C),internal box temperature (°C),relative humidity of the measurement (%),span deviation,mass concentration of particles derived from Lorenz-Mie calculation of OPC scattering (μg/m³),mass concentration of particles derived from Lorenz-Mie calculation of OPC scattering (μg/m³),mass concentration of particles derived from Lorenz-Mie calculation of OPC scattering (μg/m³)
DateTimeUTC,F1_M11,P_M11,Q1_M11,Q2_M11,T1_M11,T2_M11,T3_M11,T4_M11,T5_M11,U1_M11,ZSPAN_M11,X0_M11,X2_M11,X1_M11
2024-01-28 03:00:00,SystemResetWarning,0835.6,5.00,000.00,024.5,023.1,000.0,032.9,025.9,08.8,0000.0,0008.21,0003.24,0002.87
2024-01-28 03:01:00,SystemResetWarning,0835.6,5.01,000.00,024.5,023.1,000.0,032.9,025.8,08.7,0000.0,0007.65,0003.26,0002.89
2024-01-28 03:02:00,SystemResetWarning,0835.6,5.01,000.00,024.5,023.1,000.0,032.9,025.8,08.7,0000.0,0007.35,0003.26,0002.91
2024-01-28 03:03:00,SystemResetWarning,0835.6,5.00,000.00,024.5,023.0,000.0,032.9,025.8,08.8,0000.0,0007.39,0003.26,0002.91
2024-01-28 03:04:00,SystemResetWarning,0835.7,4.99,000.00,024.5,023.0,000.0,032.9,025.7,09.0,0000.0,0007.46,0003.27,0002.92
2024-01-28 03:05:00,SystemResetWarning,0835.6,4.99,000.00,024.4,023.0,000.0,032.9,025.7,09.2,0000.0,0007.35,0003.27,0002.92
2024-01-28 03:06:00,SystemResetWarning,0835.9,5.00,000.00,024.4,023.0,000.0,032.9,025.7,09.3,0000.0,0007.31,0003.29,0002.95
2024-01-28 03:07:00,SystemResetWarning,0835.8,5.01,000.00,024.4,022.9,000.0,032.9,025.7,09.3,0000.0,0007.38,0003.32,0003.03
2024-01-28 03:08:00,SystemResetWarning,0835.8,5.01,000.00,024.4,022.9,000.0,032.8,025.7,09.3,0000.0,0007.46,0003.35,0003.07
2024-01-28 03:09:00,SystemResetWarning,0835.6,5.01,000.00,024.4,022.9,000.0,032.8,025.7,09.1,0000.0,0006.60,0003.35,0003.09
2024-01-28 03:10:00,SystemResetWarning,0835.6,5.00,000.00,024.4,022.9,000.0,032.8,025.6,08.9,0000.0,0005.53,0003.39,0003.12
2024-01-28 03:11:00,SystemResetWarning,0835.6,4.99,000.00,024.4,022.9,000.0,032.8,025.6,08.8,0000.0,0005.08,0003.39,0003.11
2024-01-28 03:12:00,SystemResetWarning,0835.6,5.00,000.00,024.4,022.9,000.0,032.8,025.6,08.7,0000.0,0005.06,0003.38,0003.10
2024-01-28 03:13:00,SystemResetWarning,0835.6,5.01,000.00,024.3,022.9,000.0,032.8,025.6,08.7,0000.0,0004.97,0003.36,0003.08
2024-01-28 03:14:00,SystemResetWarning,0835.6,5.01,000.00,024.3,022.9,000.0,032.8,025.6,08.7,0000.0,0004.85,0003.34,0003.07
2024-01-28 03:15:00,SystemResetWarning,0835.6,5.00,000.00,024.3,022.9,000.0,032.8,025.6,08.7,0000.0,0004.79,0003.32,0003.05
2024-01-28 03:16:00,SystemResetWarning,0835.6,4.99,000.00,024.3,022.9,000.0,032.7,025.6,08.8,0000.0,0005.24,0003.30,0003.02
2024-01-28 03:17:00,SystemResetWarning,0835.6,5.00,000.00,024.3,022.8,000.0,032.7,025.6,08.8,0000.0,0005.17,0003.26,0002.99
2024-01-28 03:18:00,SystemResetWarning,0835.5,4.99,000.00,024.3,022.8,000.0,032.7,025.6,08.8,0000.0,0005.09,0003.23,0002.91
2024-01-28 03:19:00,SystemResetWarning,0835.5,5.00,000.00,024.2,022.8,000.0,032.7,025.6,08.7,0000.0,0005.91,0003.22,0002.87
2024-01-28 03:20:00,SystemResetWarning,0835.6,5.01,000.00,024.2,022.8,000.0,032.7,025.5,08.7,0000.0,0007.22,0003.21,0002.83
2024-01-28 03:21:00,SystemResetWarning,0835.7,5.00,000.00,024.2,022.8,000.0,032.7,025.5,08.7,0000.0,0007.43,0003.19,0002.75
2024-01-28 03:22:00,SystemResetWarning,0835.6,5.00,000.00,024.2,022.8,000.0,032.7,025.5,08.8,0000.0,0007.42,0003.16,0002.72
2024-01-28 03:23:00,SystemResetWarning,0835.5,5.01,000.00,024.2,022.8,000.0,032.6,025.5,08.8,0000.0,0007.49,0003.16,0002.72
2024-01-28 03:24:00,SystemResetWarning,0835.6,5.00,000.00,024.2,022.8,000.0,032.6,025.5,08.9,0000.0,0007.58,0003.17,0002.74
2024-01-28 03:25:00,SystemResetWarning,0835.8,4.99,000.00,024.2,022.8,000.0,032.6,025.5,08.8,0000.0,0007.74,0003.19,0002.73
2024-01-28 03:26:00,SystemResetWarning,0835.5,5.00,000.00,024.2,022.7,000.0,032.6,025.5,08.8,0000.0,0007.78,0003.20,0002.74
2024-01-28 03:27:00,SystemResetWarning,0835.6,5.00,000.00,024.2,022.7,000.0,032.6,025.5,08.7,0000.0,0007.51,0003.20,0002.75
2024-01-28 03:28:00,SystemResetWarning,0835.6,4.99,000.00,024.1,022.7,000.0,032.6,025.5,08.7,0000.0,0007.47,0003.20,0002.73
2024-01-28 03:29:00,SystemResetWarning,0835.6,5.00,000.00,024.1,022.7,000.0,032.6,025.5,08.7,0000.0,0007.38,0003.17,0002.73
2024-01-28 03:30:00,SystemResetWarning,0835.6,5.01,000.00,024.1,022.7,000.0,032.5,025.5,08.8,0000.0,0006.85,0003.17,0002.72
2024-01-28 03:31:00,SystemResetWarning,0835.6,5.00,000.00,024.1,022.7,000.0,032.5,025.4,08.8,0000.0,0005.09,0003.13,0002.71
2024-01-28 03:32:00,SystemResetWarning,0835.6,5.01,000.00,024.1,022.7,000.0,032.5,025.4,09.0,0000.0,0005.90,0003.13,0002.71
2024-01-28 03:33:00,SystemResetWarning,0835.6,5.01,000.00,024.1,022.6,000.0,032.5,025.4,08.9,0000.0,0007.37,0003.14,0002.70
2024-01-28 03:34:00,SystemResetWarning,0835.6,5.00,000.00,024.1,022.6,000.0,032.5,025.4,08.8,0000.0,0007.56,0003.15,0002.70
2024-01-28 03:35:00,SystemResetWarning,0835.6,5.00,000.00,024.0,022.6,000.0,032.5,025.4,08.8,0000.0,0007.59,0003.17,0002.71
2024-01-28 03:36:00,SystemResetWarning,0835.6,5.00,000.00,024.0,022.6,000.0,032.5,025.4,08.7,0000.0,0007.45,0003.17,0002.73
2024-01-28 03:37:00,SystemResetWarning,0835.6,5.00,000.00,024.0,022.6,000.0,032.5,025.4,08.7,0000.0,0007.70,0003.18,0002.77
2024-01-28 03:38:00,SystemResetWarning,0835.6,5.00,000.00,024.0,022.6,000.0,032.4,025.4,08.7,0000.0,0008.08,0003.19,0002.78
2024-01-28 03:39:00,SystemResetWarning,0835.6,5.00,000.00,024.0,022.6,000.0,032.4,025.4,08.8,0000.0,0008.17,0003.22,0002.81
2024-01-28 03:40:00,SystemResetWarning,0835.6,5.00,000.00,024.0,022.6,000.0,032.4,025.3,08.8,0000.0,0008.27,0003.26,0002.84
2024-01-28 03:41:00,SystemResetWarning,0835.6,5.00,000.00,024.0,022.6,000.0,032.4,025.3,08.9,0000.0,0008.30,0003.28,0002.87
2024-01-28 03:42:00,SystemResetWarning,0835.6,5.00,000.00,024.0,022.6,000.0,032.4,025.3,09.0,0000.0,0008.36,0003.31,0002.91
2024-01-28 03:43:00,SystemResetWarning,0835.6,5.00,000.00,024.0,022.6,000.0,032.4,025.3,09.2,0000.0,0008.06,0003.33,0002.95
2024-01-28 03:44:00,SystemResetWarning,0835.6,5.01,000.00,024.0,022.6,000.0,032.4,025.3,09.2,0000.0,0006.94,0003.32,0002.98
2024-01-28 03:45:00,SystemResetWarning,0835.6,5.01,000.00,024.0,022.6,000.0,032.4,025.3,09.2,0000.0,0006.32,0003.33,0003.01
2024-01-28 03:46:00,SystemResetWarning,0835.6,5.00,000.00,024.0,022.6,000.0,032.4,025.3,09.3,0000.0,0007.38,0003.33,0003.02
2024-01-28 03:47:00,SystemResetWarning,0835.6,5.00,000.00,023.9,022.6,000.0,032.4,025.3,09.0,0000.0,0007.40,0003.33,0003.02
2024-01-28 03:48:00,SystemResetWarning,0835.6,5.00,000.00,023.9,022.6,000.0,032.4,025.2,08.8,0000.0,0007.18,0003.35,0003.03
2024-01-28 03:49:00,SystemResetWarning,0835.6,5.00,000.00,023.9,022.6,000.0,032.3,025.2,08.8,0000.0,0006.46,0003.37,0003.03
2024-01-28 03:50:00,SystemResetWarning,0835.7,5.00,000.00,023.9,022.6,000.0,032.3,025.2,08.8,0000.0,0006.24,0003.36,0003.04
2024-01-28 03:51:00,SystemResetWarning,0835.6,5.00,000.00,023.9,022.5,000.0,032.3,025.2,08.8,0000.0,0006.09,0003.35,0003.06
2024-01-28 03:52:00,SystemResetWarning,0835.6,5.00,000.00,023.9,022.5,000.0,032.3,025.2,08.8,0000.0,0006.10,0003.36,0003.07
2024-01-28 03:53:00,SystemResetWarning,0835.6,5.00,000.00,023.9,022.5,000.0,032.3,025.2,08.8,0000.0,0006.08,0003.37,0003.08
2024-01-28 03:54:00,SystemResetWarning,0835.6,5.00,000.00,023.9,022.5,000.0,032.3,025.2,08.8,0000.0,0006.20,0003.39,0003.09
2024-01-28 03:55:00,SystemResetWarning,0835.6,5.00,000.00,023.8,022.5,000.0,032.3,025.2,08.8,0000.0,0006.46,0003.43,0003.11
2024-01-28 03:56:00,SystemResetWarning,0835.6,5.00,000.00,023.8,022.4,000.0,032.2,025.2,08.8,0000.0,0006.50,0003.44,0003.11
2024-01-28 03:57:00,SystemResetWarning,0835.7,5.00,000.00,023.8,022.4,000.0,032.2,025.2,08.9,0000.0,0005.25,0003.43,0003.11
2024-01-28 03:58:00,SystemResetWarning,0835.6,5.00,000.00,023.8,022.4,000.0,032.2,025.1,08.9,0000.0,0005.00,0003.43,0003.12
2024-01-28 03:59:00,SystemResetWarning,0835.7,5.00,000.00,023.8,022.4,000.0,032.2,025.1,08.9,0000.0,0004.94,0003.42,0003.12
